Previsão horária em Castelo Branco

Hoje, 17 Janeiro, Domingo

Tempo Temperatura Precipitação Vento Pressão Humidade
00:00 +3°C° 0 mm 0 m/s 740 mmHg 74%
01:00 +3°C° 0 mm 0 m/s 739 mmHg 74%
02:00 +4°C° 0 mm 1 m/s 739 mmHg 74%
03:00 +4°C° 0 mm 1 m/s 739 mmHg 75%
04:00 +3°C° 0 mm 1 m/s 739 mmHg 75%
05:00 +3°C° 0 mm 1 m/s 739 mmHg 75%
06:00 +3°C° 0 mm 1 m/s 739 mmHg 77%
07:00 +3°C° 0 mm 1 m/s 739 mmHg 74%
08:00 +4°C° 0 mm 1 m/s 739 mmHg 70%
09:00 +5°C° 0 mm 1 m/s 739 mmHg 67%
10:00 +8°C° 0 mm 1 m/s 739 mmHg 59%
11:00 +10°C° 0 mm 1 m/s 740 mmHg 51%
12:00 +13°C° 0 mm 1 m/s 740 mmHg 45%
13:00 +14°C° 0 mm 1 m/s 739 mmHg 44%
14:00 +13°C° 0 mm 0 m/s 739 mmHg 44%
15:00 +14°C° 0 mm 0 m/s 738 mmHg 43%
16:00 +11°C° 0 mm 0 m/s 738 mmHg 51%
17:00 +9°C° 0 mm 0 m/s 738 mmHg 59%
18:00 +6°C° 0 mm 0 m/s 738 mmHg 67%
19:00 +6°C° 0 mm 0 m/s 738 mmHg 68%
20:00 +6°C° 0 mm 1 m/s 738 mmHg 68%
21:00 +6°C° 0 mm 1 m/s 738 mmHg 68%
22:00 +6°C° 0 mm 1 m/s 738 mmHg 69%
23:00 +5°C° 0 mm 1 m/s 738 mmHg 71%

Amanhã, 18 Janeiro, Segunda-feira

Tempo Temperatura Precipitação Vento Pressão Humidade
00:00 +5°C° 0 mm 1 m/s 738 mmHg 73%
01:00 +4°C° 0 mm 1 m/s 738 mmHg 74%
02:00 +4°C° 0 mm 1 m/s 737 mmHg 76%
03:00 +4°C° 0 mm 1 m/s 737 mmHg 78%
04:00 +4°C° 0 mm 1 m/s 737 mmHg 79%
05:00 +3°C° 0 mm 1 m/s 737 mmHg 80%
06:00 +3°C° 0 mm 1 m/s 737 mmHg 81%
07:00 +4°C° 0 mm 1 m/s 737 mmHg 78%
08:00 +4°C° 0 mm 1 m/s 737 mmHg 75%
09:00 +5°C° 0 mm 1 m/s 737 mmHg 71%
10:00 +7°C° 0 mm 1 m/s 738 mmHg 65%
11:00 +9°C° 0 mm 1 m/s 738 mmHg 59%
12:00 +12°C° 0 mm 2 m/s 738 mmHg 52%
13:00 +12°C° 0 mm 1 m/s 737 mmHg 52%
14:00 +13°C° 0 mm 1 m/s 736 mmHg 51%
15:00 +14°C° 0 mm 1 m/s 736 mmHg 50%
16:00 +11°C° 0 mm 1 m/s 736 mmHg 59%
17:00 +9°C° 0 mm 1 m/s 736 mmHg 68%
18:00 +6°C° 0 mm 0 m/s 736 mmHg 77%
19:00 +6°C° 0 mm 1 m/s 736 mmHg 79%
20:00 +6°C° 0 mm 1 m/s 736 mmHg 81%
21:00 +5°C° 0 mm 1 m/s 736 mmHg 82%
22:00 +5°C° 0 mm 1 m/s 736 mmHg 84%
23:00 +5°C° 0 mm 1 m/s 736 mmHg 86%

Depois de amanhã, 19 Janeiro, Terça-feira

Tempo Temperatura Precipitação Vento Pressão Humidade
00:00 +4°C° 0 mm 1 m/s 736 mmHg 89%
01:00 +4°C° 0 mm 1 m/s 736 mmHg 90%
02:00 +3°C° 0 mm 1 m/s 736 mmHg 91%
03:00 +3°C° 0 mm 1 m/s 735 mmHg 92%
04:00 +3°C° 0 mm 1 m/s 735 mmHg 93%
05:00 +2°C° 0 mm 1 m/s 735 mmHg 94%
06:00 +2°C° 0 mm 1 m/s 734 mmHg 94%
07:00 +3°C° 0 mm 1 m/s 734 mmHg 92%
08:00 +3°C° 0 mm 1 m/s 735 mmHg 90%
09:00 +4°C° 0 mm 1 m/s 735 mmHg 88%
10:00 +5°C° 0 mm 1 m/s 735 mmHg 83%
11:00 +7°C° 0 mm 1 m/s 734 mmHg 78%
12:00 +9°C° 0 mm 1 m/s 734 mmHg 73%
13:00 +9°C° 0 mm 1 m/s 734 mmHg 74%
14:00 +9°C° 0 mm 1 m/s 733 mmHg 75%
15:00 +10°C° 0 mm 1 m/s 732 mmHg 76%
16:00 +9°C° 0 mm 1 m/s 732 mmHg 80%
17:00 +9°C° 0 mm 1 m/s 731 mmHg 84%
18:00 +8°C° 0 mm 1 m/s 731 mmHg 88%
19:00 +7°C° 0 mm 2 m/s 731 mmHg 89%
20:00 +7°C° 0 mm 2 m/s 730 mmHg 91%
21:00 +7°C° 0 mm 2 m/s 730 mmHg 92%
22:00 +7°C° 0.1 mm 3 m/s 730 mmHg 92%
23:00 +7°C° 0.1 mm 3 m/s 729 mmHg 92%

20 Janeiro, Quarta-feira

Tempo Temperatura Precipitação Vento Pressão Humidade
00:00 +7°C° 0.1 mm 3 m/s 728 mmHg 93%
01:00 +7°C° 0.7 mm 4 m/s 727 mmHg 93%
02:00 +7°C° 0.7 mm 4 m/s 726 mmHg 94%
03:00 +7°C° 0.7 mm 4 m/s 725 mmHg 95%
04:00 +7°C° 3.4 mm 5 m/s 724 mmHg 95%
05:00 +7°C° 3.4 mm 5 m/s 723 mmHg 96%
06:00 +8°C° 3.4 mm 5 m/s 723 mmHg 96%
07:00 +8°C° 0.9 mm 5 m/s 722 mmHg 96%
08:00 +8°C° 0.9 mm 5 m/s 722 mmHg 96%
09:00 +8°C° 0.9 mm 4 m/s 722 mmHg 96%
10:00 +9°C° 0.5 mm 5 m/s 722 mmHg 95%
11:00 +9°C° 0.5 mm 5 m/s 722 mmHg 94%
12:00 +9°C° 0.5 mm 5 m/s 722 mmHg 93%
13:00 +9°C° 0.6 mm 5 m/s 722 mmHg 92%
14:00 +10°C° 0.6 mm 6 m/s 722 mmHg 91%
15:00 +10°C° 0.6 mm 6 m/s 721 mmHg 90%
16:00 +10°C° 0.7 mm 6 m/s 722 mmHg 91%
17:00 +9°C° 0.7 mm 5 m/s 722 mmHg 92%
18:00 +9°C° 0.7 mm 5 m/s 722 mmHg 93%
19:00 +9°C° 0.2 mm 5 m/s 723 mmHg 93%
20:00 +9°C° 0.2 mm 5 m/s 724 mmHg 93%
21:00 +9°C° 0.2 mm 5 m/s 724 mmHg 93%
22:00 +10°C° 0.1 mm 4 m/s 725 mmHg 93%
23:00 +10°C° 0.1 mm 4 m/s 725 mmHg 94%

21 Janeiro, Quinta-feira

Tempo Temperatura Precipitação Vento Pressão Humidade
00:00 +10°C° 0.1 mm 4 m/s 726 mmHg 94%
01:00 +10°C° 0.1 mm 4 m/s 726 mmHg 95%
02:00 +10°C° 0.1 mm 4 m/s 726 mmHg 95%
03:00 +10°C° 0.1 mm 3 m/s 726 mmHg 96%
04:00 +10°C° 0.1 mm 3 m/s 727 mmHg 96%
05:00 +10°C° 0.1 mm 3 m/s 727 mmHg 96%
06:00 +10°C° 0.1 mm 3 m/s 727 mmHg 96%
07:00 +10°C° 0.1 mm 3 m/s 727 mmHg 96%
08:00 +10°C° 0.1 mm 4 m/s 727 mmHg 96%
09:00 +10°C° 0.1 mm 4 m/s 727 mmHg 96%
10:00 +9°C° 0.4 mm 5 m/s 727 mmHg 94%
11:00 +10°C° 0.4 mm 6 m/s 727 mmHg 92%
12:00 +10°C° 0.4 mm 6 m/s 727 mmHg 91%
13:00 +10°C° 1.9 mm 6 m/s 726 mmHg 93%
14:00 +10°C° 1.9 mm 6 m/s 726 mmHg 94%
15:00 +10°C° 1.9 mm 6 m/s 725 mmHg 96%
16:00 +10°C° 0.7 mm 6 m/s 725 mmHg 95%
17:00 +10°C° 0.7 mm 5 m/s 726 mmHg 94%
18:00 +12°C° 0.7 mm 5 m/s 726 mmHg 92%
19:00 +11°C° 0.1 mm 4 m/s 726 mmHg 93%
20:00 +11°C° 0.1 mm 4 m/s 726 mmHg 94%
21:00 +10°C° 0.1 mm 4 m/s 727 mmHg 95%
22:00 +10°C° 0.4 mm 4 m/s 727 mmHg 95%
23:00 +10°C° 0.4 mm 4 m/s 727 mmHg 95%

22 Janeiro, Sexta-feira

Tempo Temperatura Precipitação Vento Pressão Humidade
00:00 +10°C° 0.4 mm 4 m/s 727 mmHg 95%
01:00 +10°C° 0.1 mm 3 m/s 727 mmHg 95%
02:00 +9°C° 0.1 mm 3 m/s 727 mmHg 95%
03:00 +9°C° 0.1 mm 3 m/s 727 mmHg 96%
04:00 +9°C° 0.2 mm 3 m/s 727 mmHg 95%
05:00 +7°C° 0.2 mm 4 m/s 727 mmHg 95%
06:00 +7°C° 0.2 mm 4 m/s 727 mmHg 95%
07:00 +7°C° 0.3 mm 4 m/s 728 mmHg 94%
08:00 +7°C° 0.3 mm 5 m/s 728 mmHg 92%
09:00 +7°C° 0.3 mm 5 m/s 729 mmHg 91%
10:00 +8°C° 0.4 mm 6 m/s 729 mmHg 87%
11:00 +8°C° 0.4 mm 6 m/s 730 mmHg 84%
12:00 +9°C° 0.4 mm 7 m/s 730 mmHg 80%
13:00 +9°C° 0.4 mm 6 m/s 731 mmHg 79%
14:00 +9°C° 0.4 mm 5 m/s 731 mmHg 78%
15:00 +9°C° 0.4 mm 5 m/s 731 mmHg 77%
16:00 +8°C° 0 mm 4 m/s 731 mmHg 81%
17:00 +8°C° 0 mm 3 m/s 732 mmHg 86%
18:00 +7°C° 0 mm 2 m/s 732 mmHg 91%
19:00 +6°C° 0 mm 2 m/s 733 mmHg 92%
20:00 +6°C° 0 mm 2 m/s 734 mmHg 93%
21:00 +6°C° 0 mm 2 m/s 734 mmHg 95%
22:00 +5°C° 0 mm 2 m/s 735 mmHg 95%
23:00 +5°C° 0 mm 2 m/s 735 mmHg 95%
Mostrar mais

Necessitamos do seu Consentimento

A Meteoprog e os seus Fornecedores de Serviços podem armazenar e aceder a dados pessoais como cookies, identificadores do dispositivo ou outras tecnologias semelhantes existentes no seu dispositivo e processar estes dados para personalizar conteúdos e anúncios, assim como funcionalidades nas redes sociais e análise de tráfego.

  • Armazenar e/ou aceder a informações no seu dispositivo

    Os cookies, identificadores do dispositivo ou outras informações podem ser armazenados ou acedidos no seu dispositivo, para os fins acima indicados.

  • Anúncios e conteúdos personalizados, medição de anúncios e conteúdos, dados sobre o público-alvo e desenvolvimento de produtos

    Os anúncios e os conteúdos podem ser personalizados com base num perfil. Podem ser adicionados dados adicionais para uma maior personalização dos anúncios e dos conteúdos. A eficácia dos anúncios e dos conteúdos pode ser medida. Podem ser obtidas informações sobre o público que visualizou os anúncios e os conteúdos. Estes dados podem ser usados para desenvolver ou melhorar sistemas, softwares ou a experiência do utilizador.

Ao clicar em "Eu concordo”, permitirá o uso de cookies, identificadores do dispositivo e web beacons mencionados ou outras tecnologias semelhantes. As configurações do navegador do seu dispositivo podem ser alteradas.

Para certos fins, podem ser invocados interesses legítimos ao invés de consentimento. Pode ler mais informação sobre este assunto na nossa Política de Privacidade e Cookies.